Volver al catálogo

FENGYUN 1C DEB

ActivoPO
NORAD 29816·DEBRIS·🇨🇳 China

Lanzado May 10, 1999 desde Taiyuan Satellite Launch Center

Loading…

Próximos Pases (próximas 24 horas)

TLE

ActualizadoSource: Space-Track

Época: Sep 14, 2026, 11:26 UTC

1 29816U 99025DJ  26257.47688863  .00003174  00000-0  63908-3 0  9997
2 29816  98.9585 138.6772 0232691  74.5928  47.9401 14.46593903 21703

Sigue FENGYUN 1C DEB en tiempo real con AllMySat

Download on the App Store